Regional Weather Roundup
Issued by NWS Jackson, KY

Home | Current Version | Previous Version | Text Only | Print | Product List | Glossary Off
Versions: 1 2 3 4 5 6 7 8 9 10 11 12 13 14 15 16 17 18 19 20 21 22 23 24 25 26 27 28 29 30 31 32 33 34 35 36 37 38 39 40 41 42 43 44 45 46 47 48 49 50

000
ASUS43 KJKL 271319
RWRJKL

EAST KENTUCKY HOURLY WEATHER ROUNDUP
NATIONAL WEATHER SERVICE JACKSON KY
800 AM EST THU NOV 27 2014

NOTE: "FAIR" INDICATES FEW OR NO CLOUDS BELOW 12,000 FEET WITH
NO SIGNIFICANT WEATHER AND/OR OBSTRUCTIONS TO VISIBILITY.

* THESE REPORTS ARE NOT UNDER NWS QUALITY CONTROL AND MAY NOT
  REPORT WEATHER SUCH AS PRECIPITATION AND FOG.

KYZ079-080-083-085-087-088-110-112-115-119-120-271400
...EASTERN KENTUCKY...

CITY           SKY/WX    TMP DP  RH WIND       PRES   REMARKS
JACKSON        LGT SNOW  31  29  92 NW6       30.15R FOG     WCI  25
LONDON         CLOUDY    34  30  85 NW10      30.19R WCI  26
SOMERSET*      CLOUDY    32  32 100 N7        30.22R WCI  26
MONTICELLO*    CLOUDY    34  32  92 NW7       30.25R WCI  28
MIDDLESBORO*   FLURRIES  36  32  87 NW10      30.16  WCI  28
HARLAN APT*    CLOUDY    34  32  93 W6        30.12R WCI  29
HAZARD APT*    LGT SNOW  32  32 100 NW7       30.15R WCI  26
BLACK MTN*       N/A     25  25 100 N13         N/A  WCI  13
PIKEVILLE APT* LGT SNOW  32  28  86 NW8       30.11R WCI  25
BIG SANDY*     HVY RAIN  32  31  96 W3        30.12R VSB 1
MOREHEAD APT*  CLOUDY    30  25  80 NW9G15    30.20R FOG     WCI  22
ASHLAND*       CLOUDY    34  23  64 NW7       30.15R WCI  28
$$

KYZ035-036-041-042-044-050-067-078-099-271400
...CENTRAL KENTUCKY...

CITY           SKY/WX    TMP DP  RH WIND       PRES   REMARKS
MT STERLING*   CLOUDY    30  28  93 NW6       30.20R WCI  24
FLEMING/MASON* CLOUDY    28  25  86 NW8       30.19R FOG     WCI  20
DANVILLE*      LGT SNOW  30  30 100 NW7       30.22R WCI  23
RICHMOND*      CLOUDY    32  28  86 NW7       30.19R WCI  26
LEXINGTON      CLOUDY    29  26  89 NW8       30.22R WCI  21
FRANKFORT      CLOUDY    29  24  82 NW8       30.22R WCI  21
$$

KYZ091>093-OHZ055-061-077-WVZ005-015-034-035-042-271400
...SOUTHERN OHIO/WEST VIRGINIA...

CITY           SKY/WX    TMP DP  RH WIND       PRES   REMARKS
COVINGTON      CLOUDY    29  21  72 NW12      30.21R WCI  19
COLUMBUS       CLOUDY    32  26  78 NW10      30.12R WCI  24
DAYTON         CLOUDY    30  25  81 NW9       30.18R WCI  22
WILMINGTON     CLOUDY    28  24  85 W12       30.16R FOG     WCI  18
HUNTINGTON     MOCLDY    31  25  78 NW5       30.13R WCI  26
CHARLESTON     CLOUDY    35  33  92 W6        30.09R FOG     WCI  30
PINEVILLE*     MIX PCPN  37  37 100 MISG      30.09R
BECKLEY        LGT SNOW  31  29  92 NW9       30.00R VSB 1   WCI  23
BLUEFIELD      CLOUDY    33  29  85 NW7       29.99R WCI  27
$$

VAZ002-007-008-TNZ017-027-036-066-071-271400
...SOUTHWEST VIRGINIA/EAST TENNESSEE...

CITY           SKY/WX    TMP DP  RH WIND       PRES   REMARKS
WISE*          LGT SNOW  32  32 100 NW8       30.04R WCI  25
JONESVILLE*    LGT RAIN  34  34 100 CALM      30.13R
ABINGDON*      CLOUDY    34  34 100 W5        30.03R FOG     WCI  30
BRISTOL        FLURRIES  35  33  92 W9        30.07R WCI  28
KNOXVILLE      CLOUDY    38  30  73 W12G22    30.16R WCI  30
OAK RIDGE      CLOUDY    38  32  79 S7        30.18R WCI  33
CROSSVILLE     CLOUDY    33  29  85 NW15G24   30.17R WCI  23
NASHVILLE      CLOUDY    37  32  82 NW9       30.30R WCI  30
$$

...KEY TO REMARKS...
VSB - VISIBILITY IN MILES
WCI - WIND CHILL INDEX
HX  - HEAT INDEX

$$


USA.gov is the U.S. government's official web portal to all federal, state and local government web resources and services.